Location: Newark
(49.5647°N, 8.2922°E)
Time: 16:50:01
(UTC+00:00)

Transit 2A - Visible Passes

Search period start: 21 February 2020 00:00
Search period end: 02 March 2020 00:00
Orbit: 600 x 959 km, 66.7° (Epoch: 21 February)

Date Brightness Start Highest point End Pass type
(mag) Time Alt. Az. Time Alt. Az. Time Alt. Az.
21 Feb 8.0 18:05:45 10° N 18:07:25 12° NNE 18:09:08 10° NE visible
21 Feb 7.5 19:47:53 10° NNW 19:50:27 24° N 19:50:27 24° N visible
21 Feb 8.9 21:30:42 10° NW 21:30:56 11° NW 21:30:56 11° NW visible
22 Feb 8.0 17:31:54 10° N 17:32:51 11° N 17:33:50 10° NNE visible
22 Feb 7.3 19:13:53 10° NNW 19:17:24 23° NNE 19:17:24 23° NNE visible
22 Feb 8.3 20:56:32 10° NW 20:57:54 19° NW 20:57:54 19° NW visible
23 Feb 7.5 18:39:54 10° NNW 18:43:25 19° NNE 18:44:24 18° NE visible
23 Feb 7.5 20:22:25 10° NNW 20:24:53 30° NNW 20:24:53 30° NNW visible
24 Feb 7.7 18:05:57 10° NNW 18:08:59 16° NNE 18:11:25 12° ENE visible
24 Feb 6.7 19:48:20 10° NNW 19:51:55 42° N 19:51:55 42° N visible
24 Feb 8.7 21:31:44 10° NW 21:32:25 13° WNW 21:32:25 13° WNW visible
25 Feb 7.8 17:31:59 10° N 17:34:30 14° NNE 17:37:06 10° NE visible
25 Feb 6.5 19:14:18 10° NNW 19:18:57 40° NE 19:19:00 40° NE visible
25 Feb 8.0 20:57:23 10° NW 20:59:31 24° WNW 20:59:31 24° WNW visible
26 Feb 6.9 18:40:16 10° NNW 18:44:40 31° NE 18:46:08 27° ENE visible
26 Feb 7.0 20:23:08 10° NW 20:26:39 43° WNW 20:26:39 43° WNW visible
27 Feb 7.2 18:06:16 10° NNW 18:10:20 25° NE 18:13:20 16° E visible
27 Feb 6.0 19:48:57 10° NW 19:53:52 81° W 19:53:52 81° W visible
27 Feb 8.8 21:33:38 10° WNW 21:34:23 12° W 21:34:23 12° W visible
28 Feb 7.4 17:32:16 10° NNW 17:35:56 20° NNE 17:39:51 10° E visible
28 Feb 5.9 19:14:49 10° NNW 19:19:52 75° NE 19:21:09 52° ESE visible
28 Feb 8.2 20:58:46 10° WNW 21:01:41 20° W 21:01:41 20° W visible
29 Feb 6.1 18:40:44 10° NNW 18:45:41 56° NE 18:48:32 27° ESE visible
29 Feb 7.5 20:24:13 10° NW 20:28:41 30° WSW 20:29:04 29° WSW visible
01 Mar 6.5 18:06:40 10° NNW 18:11:27 42° NE 18:16:03 13° ESE visible
01 Mar 7.1 19:49:50 10° NW 19:54:40 41° WSW 19:56:35 30° SSW visible
